Weather in Opechenskiy Posad

Russia / Novgorod Oblast     58°16′34″N   34°07′04″E
temp.,
°C
wind,
m/s
gust,
m/s
humid.,
%
clouds,
%
prec.,
mm/h
press.,
hPa
HPBL,
m
23 october, sat
sat2300:00+5sw7157233 0.0 9931274
03:00+6sw71577100 0.5 9931548
06:00+5wsw51387100 0.3 9941352
09:00+5wsw489295 2.3 996921
12:00+6wsw597214 0.2 9981143
15:00+6w4875100 0.6 10001041
18:00+4w3787100 0.2 1002692
21:00+4wsw2696100 0.4 1004666
24 october, sun
sun2400:00+3w368899 0.3 1006559
03:00+2nw5996100 0.8 1007668
06:00+1nw51296100 0.6 1010629
09:00+1nnw6118592 1.2 1013975
12:00+2nnw6107513 0.2 10171178
15:00+2nnw59715 0.3 10191131
18:000nnw49785 0.0 1022610
21:00−1nw38865 0.0 1025389
25 october, mon
mon2500:00−2wnw26885 0.0 1026196
03:00−2w2487100 0.0 1027147
06:00−1sw268491 0.0 1027231
09:000ssw41074100 0.0 1025444
12:00+2ssw51372100 0.1 1024747
15:00+3sw5148199 0.8 1022677
18:00+3sw5148590 0.0 1021653
21:00+3sw51284100 0.0 1021714
26 october, tue
tue2600:00+2sw4128945 0.0 1020438
03:00+2sw41385100 0.0 1019442
06:00+2sw41384100 0.0 1018474
09:00+2sw41381100 0.0 1017507
12:00+4sw41174100 0.0 1016602
15:00+4sw41078100 0.0 1015600
18:00+3sw41185100 0.0 1015453
21:00+3sw41286100 0.0 1014456
27 october, wed
wed2700:00+4sw41285100 0.0 1013414
03:00+4sw41288100 0.1 1012431
06:00+4sw41095100 0.9 1011438
09:00+5wsw41095100 0.9 1011446
12:00+5wsw41094100 0.1 1011505
15:00+6wsw41190100 0.1 1011589
18:00+6w4118653 0.5 1011664
21:00+5w4129231 0.5 1012588